Waarnemingen

Advertentie
Mijn weer
Lossiemouth, Groot Brittannië (3068): temperatuur & dauwpunt: 16.07.2018 17:00:00 - 22.07.2018 17:00:00 (BST)Lossiemouth, Groot Brittannië (3068): windsnelheid: 16.07.2018 17:00:00 - 22.07.2018 17:00:00 (BST)Lossiemouth, Groot Brittannië (3068): windrichting: 16.07.2018 17:00:00 - 22.07.2018 17:00:00 (BST)Lossiemouth, Groot Brittannië (3068): luchtdruk: 16.07.2018 17:00:00 - 22.07.2018 17:00:00 (BST)Lossiemouth, Groot Brittannië (3068): zicht: 16.07.2018 17:00:00 - 22.07.2018 17:00:00 (BST)Lossiemouth, Groot Brittannië (3068): neerslag: 16.07.2018 17:00:00 - 22.07.2018 17:00:00 (BST)
Datum & Tijd tt [°C] td [°C] ff [km/u] ff [kn] dd ppp [hPa] vv [km] rr [mm]
22.07.2018 17:00:00 22,4 16,0 18 10 W 1010,4 10 0,0
22.07.2018 16:00:00 21,7 15,7 22 12 W 1010,4 10 0,0
22.07.2018 15:00:00 23,2 15,9 28 15 WZW 1010,1 10 0,0
22.07.2018 14:00:00 23,7 15,8 28 15 WZW 1009,8 10 0,0
22.07.2018 13:00:00 23,1 16,0 22 12 W 1009,7 10 0,0
22.07.2018 12:00:00 22,4 15,7 26 14 WZW 1009,8 10 0,0
22.07.2018 11:00:00 21,8 15,7 21 11 W 1009,8 10 0,0
22.07.2018 10:00:00 21,0 15,4 24 13 W 1009,6 10 0,0
22.07.2018 09:00:00 20,1 14,9 29 16 WZW 1009,4 10 0,0
22.07.2018 08:00:00 19,6 14,8 22 12 WZW 1009,2 10 0,0
22.07.2018 07:00:00 18,0 14,5 16 9 ZW 1008,9 10 0,0
22.07.2018 06:00:00 17,5 14,0 24 13 WZW 1008,8 10 0,0
22.07.2018 05:00:00 16,6 13,5 21 11 WZW 1009,0 10 0,0
22.07.2018 04:00:00 16,3 13,0 24 13 WZW 1008,9 10 0,0
22.07.2018 03:00:00 15,9 12,7 11 6 WZW 1009,2 10 0,0
22.07.2018 02:00:00 15,4 12,2 15 8 ZW 1009,6 10 0,0
22.07.2018 01:00:00 15,8 12,0 11 6 ZW 1010,3 10 0,0
22.07.2018 00:00:00 16,1 12,0 16 9 ZW 1010,5 10 0,0
21.07.2018 23:00:00 16,2 11,9 16 9 WZW 1011,1 10 0,0
21.07.2018 22:00:00 16,7 11,6 21 11 WZW 1010,9 10 0,0
21.07.2018 21:00:00 17,0 11,8 11 6 ZW 1011,0 10 0,0
21.07.2018 20:00:00 17,2 11,3 22 12 WZW 1011,5 10 0,0
21.07.2018 19:00:00 18,5 12,2 18 10 W 1011,3 10 0,0
21.07.2018 18:00:00 18,3 13,6 9 5 O 1011,1 10 0,0
21.07.2018 17:00:00 18,3 13,5 13 7 O 1011,2 10 0,0
21.07.2018 16:00:00 18,0 12,9 13 7 O 1011,4 10 0,0
21.07.2018 15:00:00 18,0 12,9 11 6 NO 1012,2 10 0,0
21.07.2018 14:00:00 16,6 12,4 11 6 NNO 1012,3 10 0,0
21.07.2018 13:00:00 16,1 12,5 9 5 NO 1012,4 10 0,0
21.07.2018 12:00:00 15,4 12,7 8 4 WNW 1012,9 10 0,0
21.07.2018 11:00:00 13,8 12,5 5 3 W 1013,0 15 0,0
21.07.2018 10:00:00 13,3 12,5 5 3 WNW 1013,1 4,0 0,0
21.07.2018 09:00:00 13,2 12,0 4 2 W 1013,2 9 0,0
21.07.2018 08:00:00 13,3 12,0 8 4 NW 1013,5 10 0,0
21.07.2018 07:00:00 12,9 12,1 8 4 W 1012,8 10 0,0
21.07.2018 06:00:00 12,7 12,0 11 6 NW 1013,0 25 0,2
21.07.2018 05:00:00 12,7 12,3 15 8 NW 1013,3 3,0 0,0
21.07.2018 04:00:00 13,6 11,9 11 6 NNW 1013,0 10 0,2
21.07.2018 03:00:00 13,3 12,1 13 7 NW 1012,9 10 0,0
21.07.2018 02:00:00 14,1 13,7 8 4 NO 1012,9 3,0 0,8
21.07.2018 01:00:00 14,3 13,8 5 3 O 1012,8 10 0,0
21.07.2018 00:00:00 14,1 13,8 9 5 NNO 1012,9 3,0 0,2
20.07.2018 23:00:00 14,1 13,8 11 6 NNO 1012,8 2,5 0,0
20.07.2018 22:00:00 14,4 13,6 16 9 NNO 1012,8 7 0,0
20.07.2018 21:00:00 15,1 14,0 18 10 NNO 1012,5 7 0,0
20.07.2018 20:00:00 16,4 13,6 13 7 NNO 1011,9 10 0,0
20.07.2018 19:00:00 16,8 13,5 9 5 ONO 1011,5 10 0,0
20.07.2018 18:00:00 17,4 13,6 11 6 O 1011,2 10 0,0
20.07.2018 17:00:00 18,0 13,8 11 6 NO 1011,1 10 0,0
20.07.2018 16:00:00 19,2 13,2 9 5 NNW 1010,8 10 0,0
20.07.2018 15:00:00 18,5 12,8 13 7 NW 1010,8 10 0,0
20.07.2018 14:00:00 18,1 13,9 13 7 NW 1010,7 10 0,0
20.07.2018 13:00:00 16,9 14,1 11 6 WZW 1010,7 10 0,0
20.07.2018 12:00:00 15,3 14,2 13 7 ZW 1010,8 10 0,4
20.07.2018 11:00:00 14,4 13,8 11 6 WZW 1010,9 7 0,2
20.07.2018 10:00:00 14,1 13,3 11 6 ZW 1011,1 7 0,4
20.07.2018 09:00:00 13,5 12,7 5 3 Z 1011,1 10 2,0
20.07.2018 08:00:00 13,0 12,4 5 3 Z 1011,2 6 1,4
20.07.2018 07:00:00 13,0 12,3 8 4 Z 1011,3 7 0,4
20.07.2018 06:00:00 13,0 11,8 13 7 Z 1011,4 8 0,0
20.07.2018 05:00:00 13,2 11,4 11 6 ZW 1011,9 8 0,0
20.07.2018 04:00:00 12,8 11,3 5 3 Z 1012,2 10 0,0
20.07.2018 03:00:00 12,9 11,2 11 6 WZW 1012,8 10 0,0
20.07.2018 02:00:00 12,9 10,6 4 2 ZZW 1013,3 10 0,0
20.07.2018 01:00:00 12,9 11,0 11 6 ZZW 1013,6 10 0,2
20.07.2018 00:00:00 14,9 8,8 15 8 ZW 1014,1 10 0,0
19.07.2018 23:00:00 15,6 8,1 21 11 WZW 1014,5 10 0,0
19.07.2018 22:00:00 16,2 8,0 21 11 WZW 1014,7 10 0,0
19.07.2018 21:00:00 17,0 7,8 18 10 W 1014,9 10 0,0
19.07.2018 20:00:00 17,6 8,6 24 13 W 1014,9 10 0,0
19.07.2018 19:00:00 18,9 7,9 22 12 W 1014,8 10 0,0
19.07.2018 18:00:00 18,6 7,4 26 14 W 1015,2 10 0,0
19.07.2018 17:00:00 19,4 7,9 31 17 WNW 1015,5 10 0,0
19.07.2018 16:00:00 20,4 8,2 26 14 WNW 1016,0 10 0,0
19.07.2018 15:00:00 19,1 9,1 13 7 NW 1016,6 10 0,0
19.07.2018 14:00:00 19,3 7,9 18 10 NW 1016,6 10 0,0
19.07.2018 13:00:00 19,4 9,4 21 11 NW 1016,8 10 0,0
19.07.2018 12:00:00 18,7 8,1 22 12 WNW 1017,1 10 0,0
19.07.2018 11:00:00 18,6 7,7 21 11 WNW 1017,2 10 0,0
19.07.2018 10:00:00 17,4 9,4 16 9 WNW 1017,8 10 0,0
19.07.2018 09:00:00 16,8 8,0 15 8 WZW 1018,2 10 0,0
19.07.2018 08:00:00 14,9 7,8 16 9 WZW 1018,3 10 0,0
19.07.2018 07:00:00 11,3 9,7 8 4 Z 1018,6 10 0,0
19.07.2018 06:00:00 9,8 9,0 5 3 ZZW 1018,6 10 0,0
19.07.2018 05:00:00 8,8 8,3 8 4 ZZW 1018,4 10 0,0
19.07.2018 04:00:00 11,4 9,5 4 2 ZZW 1018,4 10 0,0
19.07.2018 03:00:00 12,5 10,0 9 5 ZZO 1018,7 10 0,0
19.07.2018 02:00:00 13,4 9,6 9 5 OZO 1018,8 10 0,0
19.07.2018 01:00:00 12,8 8,7 5 3 OZO 1019,0 10 0,0
19.07.2018 00:00:00 12,5 8,1 2 1 Z 1019,2 10 0,0
18.07.2018 23:00:00 13,2 7,2 4 2 O 1018,9 10 0,0
18.07.2018 22:00:00 15,3 6,6 8 4 OZO 1018,8 10 0,0
18.07.2018 21:00:00 16,2 7,0 9 5 OZO 1018,7 10 0,0
18.07.2018 20:00:00 16,8 7,1 5 3 O 1018,5 10 0,0
18.07.2018 19:00:00 17,0 6,2 11 6 NO 1018,3 10 0,0
18.07.2018 18:00:00 18,3 6,3 11 6 NO 1018,1 10 0,0
18.07.2018 17:00:00 17,5 7,0 11 6 N 1018,1 10 0,0
18.07.2018 16:00:00 17,3 7,4 11 6 N 1018,0 10 0,0
18.07.2018 15:00:00 17,0 7,6 9 5 NW 1017,7 10 0,0
18.07.2018 14:00:00 17,3 8,6 16 9 NW 1017,3 10 0,0
18.07.2018 13:00:00 16,0 8,7 13 7 WNW 1016,9 10 0,0
18.07.2018 12:00:00 16,7 8,5 11 6 NW 1016,5 10 0,0
18.07.2018 11:00:00 15,6 8,9 11 6 W 1016,4 10 0,0
18.07.2018 10:00:00 15,3 9,9 11 6 W 1016,3 10 0,0
18.07.2018 09:00:00 14,2 9,6 11 6 W 1016,2 10 0,0
18.07.2018 08:00:00 13,9 10,3 16 9 WZW 1015,9 10 0,0
18.07.2018 07:00:00 12,1 9,9 8 4 ZZW 1015,5 10 0,0
18.07.2018 06:00:00 11,2 10,4 4 2 Z 1015,1 10 0,0
18.07.2018 05:00:00 11,2 10,8 8 4 ZZW 1014,8 10 0,0
18.07.2018 04:00:00 11,5 11,3 5 3 ZW 1014,7 10 0,2
18.07.2018 03:00:00 10,5 10,4 8 4 ZW 1014,6 10 0,0
18.07.2018 02:00:00 10,2 10,0 9 5 WZW 1014,4 10 0,0
18.07.2018 01:00:00 10,6 10,1 5 3 W 1014,4 10 0,0
18.07.2018 00:00:00 12,9 11,5 9 5 NNO 1014,4 10 0,0
17.07.2018 23:00:00 13,4 12,2 9 5 WNW 1013,8 10 0,0
17.07.2018 22:00:00 13,7 12,5 5 3 W 1013,4 10 0,0
17.07.2018 21:00:00 14,5 13,0 11 6 ZZW 1013,2 10 0,0
17.07.2018 20:00:00 14,4 13,0 11 6 ZZO 1012,8 10 0,2
17.07.2018 19:00:00 14,0 12,8 8 4 Z 1012,8 10 1,0
17.07.2018 18:00:00 15,1 12,9 4 2 OZO 1012,6 7 1,2
17.07.2018 17:00:00 15,9 11,5 11 6 NNW 1012,2 10 0,0
17.07.2018 16:00:00 17,2 9,1 11 6 NW 1012,0 10 0,0
17.07.2018 15:00:00 15,1 11,7 11 6 WZW 1012,1 10 0,0
17.07.2018 14:00:00 16,2 9,6 13 7 N 1011,7 10 0,0
17.07.2018 13:00:00 18,3 8,0 13 7 NNO 1011,5 10 0,0
17.07.2018 12:00:00 16,8 8,7 11 6 NNW 1011,8 10 0,0
17.07.2018 11:00:00 16,7 8,8 11 6 W 1011,7 10 0,0
17.07.2018 10:00:00 16,8 9,6 13 7 W 1011,7 10 0,0
17.07.2018 09:00:00 16,6 9,2 18 10 WZW 1011,8 10 0,0
17.07.2018 08:00:00 14,5 8,5 11 6 WZW 1011,4 10 0,0
17.07.2018 07:00:00 13,2 10,0 4 2 Z 1011,4 10 0,0
17.07.2018 06:00:00 10,9 8,6 4 2 Z 1011,5 10 0,0
17.07.2018 05:00:00 11,2 8,0 5 3 ZZW 1011,2 70 0,0
17.07.2018 04:00:00 11,6 8,4 2 1 ONO 1011,3 10 0,0
17.07.2018 03:00:00 11,1 8,3 8 4 ZZW 1011,7 10 0,0
17.07.2018 02:00:00 11,8 8,7 8 4 ZZW 1011,8 10 0,0
17.07.2018 01:00:00 13,5 8,2 11 6 WZW 1011,9 10 0,0
17.07.2018 00:00:00 12,8 9,3 11 6 WZW 1011,9 10 0,0
16.07.2018 23:00:00 14,7 9,9 13 7 W 1011,6 10 0,0
16.07.2018 22:00:00 16,6 9,8 13 7 W 1011,4 10 0,0
16.07.2018 21:00:00 17,5 8,4 16 9 W 1011,0 10 0,0
16.07.2018 20:00:00 18,0 9,1 13 7 WNW 1010,8 10 0,0
16.07.2018 19:00:00 18,7 10,0 11 6 WNW 1010,6 10 0,0
16.07.2018 18:00:00 18,0 13,9 13 7 OZO 1010,6 10 0,0
16.07.2018 17:00:00 16,7 13,4 16 9 O 1010,5 10 0,0

tt = temperatuur
td = dauwpunt
ff = windsnelheid
dd = windrichting
ppp = luchtdruk
vv = zicht
rr = neerslag

Weerstations in de omgeving